Regional Weather Roundup
Issued by NWS

Home | Current Version | Previous Version | Graphics & Text | Print | Product List | Glossary On
Versions: 1 2 3 4 5 6 7 8 9 10 11 12 13 14 15 16 17 18 19 20 21 22 23 24 25 26 27 28
000
ASUS45 KSLC 291410
RWRUT

UTAH REGIONAL WEATHER ROUNDUP
NATIONAL WEATHER SERVICE SALT LAKE CITY UT
800 AM MDT FRI JUL 29 2016

UTZ001>011-023>025-291500-

NORTHERN UTAH

CITY           SKY/WX    TMP DP  RH WIND       PRES   REMARKS
BRIGHAM CITY     N/A     65  41  41 CALM      30.07R
HILL AFB       SUNNY     70  37  30 E17       30.09R
LOGAN          SUNNY     59  48  67 CALM      30.10R
OGDEN          SUNNY     72  39  30 S8        30.06S
PROVO AIRPORT  MOSUNNY   70  45  40 VRB3      30.10R
SALT LAKE CITY MOSUNNY   80  43  26 SE8       30.04S
VERNAL         SUNNY     69  38  32 CALM      30.16S
WENDOVER       SUNNY     77  41  27 CALM      30.07S
HEBER CITY     SUNNY     59  43  55 CALM      30.20S
WEST JORDAN    SUNNY     70  39  32 S5        30.09

$$

UTZ012>022-026-027-291500-

SOUTHERN/CENTRAL UTAH

CITY           SKY/WX    TMP DP  RH WIND       PRES   REMARKS
BLANDING       SUNNY     76  35  22 N5        30.25R
BRYCE CANYON   PTSUNNY   60  38  43 W7        30.35R
CEDAR CITY     MOSUNNY   76  40  27 CALM      30.16R
DELTA          SUNNY     72  34  25 CALM      30.09R
MILFORD        PTSUNNY   69  43  38 S7        30.10S
MOAB/CYNLANDS  SUNNY     78  27  15 CALM      30.05R
PRICE          SUNNY     75  31  19 W5        30.18R
ST GEORGE      SUNNY     82  43  24 E7        29.96S

$$

REGIONAL REPORTS     COLORADO/ARIZONA

CITY           SKY/WX    TMP DP  RH WIND       PRES   REMARKS
CRAIG, CO      SUNNY     53  41  63 SE3       30.27R
GRAND JUNCTION SUNNY     72  37  28 SE3       30.11R
RIFLE          SUNNY     62  37  39 CALM      30.21R
MONTROSE       CLOUDY    71  36  27 SE12      30.20S
CORTEZ         SUNNY     65  40  39 NE6       30.20R
PAGE, AZ       MOSUNNY   84  41  21 NW6       30.03S
GRAND CANYON   HAZE      64  50  60 CALM      30.27S VSB 1/2
KINGMAN        MOSUNNY   80  47  31 SE7       30.00R
FLAGSTAFF      PTSUNNY   60  47  61 CALM      30.29S

$$

REGIONAL REPORTS    NEVADA/IDAHO/WYOMING

CITY           SKY/WX    TMP DP  RH WIND       PRES   REMARKS
LAS VEGAS, NV  PTSUNNY   95  49  20 SW3       29.82S HX  92
ELY            PTSUNNY   64  38  38 S8        30.23R
ELKO           SUNNY     65  39  38 E5        30.15R
POCATELLO, ID  SUNNY     67  37  33 SW10      30.09S
BURLEY         SUNNY     62  45  53 CALM      30.06R
EVANSTON, WY   SUNNY     63  30  28 SE3       30.30R
ROCK SPRINGS   SUNNY     62  47  57 E3        30.29S
KEMMERER         N/A     61  39  44 N6        30.31S

$$




USA.gov is the U.S. government's official web portal to all federal, state and local government web resources and services.